Regional Weather Roundup
Issued by NWS

Home | Current Version | Previous Version | Text Only | Print | Product List | Glossary On
Versions: 1 2 3 4 5 6 7 8 9 10 11 12 13 14 15 16 17 18 19 20 21 22 23 24 25 26 27 28 29 30 31 32 33 34 35 36 37 38 39 40 41 42 43 44 45 46 47 48 49 50
882
ASUS44 KJAN 301603
RWRMS

MISSISSIPPI HOURLY WEATHER ROUNDUP
NATIONAL WEATHER SERVICE JACKSON MS
1100 AM CDT TUE SEP 30 2014

NOTE: "FAIR: INDICATES FEW OR NO CLOUDS BELOW 12,000 FEET WITH NO
SIGNIFICANT WEATHER AND/OR OBSTRUCTIONS TO VISIBILITY.

MSZ001>002-007>008-010>013-018>021-025>028-034>036-301700-
NORTHWEST MISSISSIPPI

CITY           SKY/WX    TMP DP  RH WIND       PRES   REMARKS
CLARKSDALE     FAIR      81  63  54 CALM      29.95F
CLEVELAND      FAIR      82  63  52 CALM      29.94S
GREENWOOD      SUNNY     82  68  62 VRB3      29.94S
GREENVILLE     SUNNY     84  61  45 CALM      29.93F
GRENADA        FAIR      79  68  69 CALM      29.95S
OLIVE BRANCH   MOSUNNY   81  64  57 SE5       29.96S
OXFORD         FAIR      77  64  65 S5        29.98R
TUNICA         SUNNY     81  61  50 E3        29.96S
$$

MSZ003>006-009-014>017-022>024-029>033-037>039-301700-
NORTHEAST MISSISSIPPI

CITY           SKY/WX    TMP DP  RH WIND       PRES   REMARKS
COLUMBUS AFB   SUNNY     77  67  69 VRB1      29.97S
CORINTH        FAIR      81  64  57 VRB6      29.96S
GOLDN TRIANGLE MOSUNNY   79  66  65 S8        29.96S
STARKVILLE     FAIR      79  68  69 E5        29.96S
TUPELO         SUNNY     79  66  64 S6        29.96S
$$

MSZ040-058-301700-
CENTRAL MISSISSIPPI

CITY           SKY/WX    TMP DP  RH WIND       PRES   REMARKS
JACKSON INTL   PTSUNNY   82  67  60 E5        29.94F
JACKSON HAWKNS MOSUNNY   83  67  58 SE6       29.94F
MERIDIAN KEY   MOSUNNY   78  65  63 NE6       29.96F
MERIDIAN NAS   MOSUNNY   78  66  66 VRB3      29.96F
RAYMOND        FAIR      82  77  83 CALM      29.94F HX  91
VICKSBURG      SUNNY     84  67  56 SE6       29.93S
$$

MSZ059>079-301700-
SOUTH MISSISSIPPI

CITY           SKY/WX    TMP DP  RH WIND       PRES   REMARKS
BROOKHAVEN     FAIR      82  70  65 SE5       29.96S
COLUMBIA       FAIR      81  72  74 CALM      29.92S
HATTIESBURG    PTSUNNY   79  71  76 E5        29.95R
MCCOMB         MOSUNNY   83  69  62 CALM      29.93F
NATCHEZ        SUNNY     82  73  74 E6        29.94S
PINE BELT      CLOUDY    79  70  73 NE5       29.96S
$$

MSZ080>082-301700-
COASTAL MISSISSIPPI

CITY           SKY/WX    TMP DP  RH WIND       PRES   REMARKS
BAY ST LOUIS   MOSUNNY   82  70  65 NE5       29.91F
BILOXI         SUNNY     82  71  70 E6        29.92S
PASCAGOULA     CLOUDY    76  70  82 NE5       29.93R
GULFPORT       PTSUNNY   81  72  74 SE8       29.91S
$$



USA.gov is the U.S. government's official web portal to all federal, state and local government web resources and services.